• In Uzbekistan
  • List of Countries
  • For 7 days
  • Water Temperature
  • Satellite Maps
  • Weather Map
  • Weather Widgets
  • user-avatar
    Login

    Hourly Weather Jewłach

    Today, 21 February, Tuesday

    Time Temperature Precipitation Wind Pressure Humidity
    00:00 +3°C° 0 mm 1 mps 766 mmHg 71%
    01:00 +3°C° 0 mm 1 mps 765 mmHg 71%
    02:00 +2°C° 0 mm 0 mps 765 mmHg 71%
    03:00 +1°C° 0 mm 0 mps 764 mmHg 72%
    04:00 +2°C° 0 mm 1 mps 764 mmHg 70%
    05:00 +3°C° 0 mm 1 mps 764 mmHg 69%
    06:00 +3°C° 0 mm 1 mps 764 mmHg 67%
    07:00 +3°C° 0 mm 2 mps 763 mmHg 62%
    08:00 +5°C° 0 mm 2 mps 763 mmHg 57%
    09:00 +7°C° 0 mm 2 mps 763 mmHg 51%
    10:00 +9°C° 0 mm 3 mps 762 mmHg 47%
    11:00 +10°C° 0 mm 3 mps 761 mmHg 43%
    12:00 +12°C° 0 mm 3 mps 761 mmHg 39%
    13:00 +12°C° 0 mm 3 mps 760 mmHg 39%
    14:00 +12°C° 0 mm 3 mps 760 mmHg 40%
    15:00 +13°C° 0 mm 4 mps 759 mmHg 40%
    16:00 +11°C° 0 mm 3 mps 759 mmHg 46%
    17:00 +9°C° 0 mm 3 mps 759 mmHg 51%
    18:00 +7°C° 0 mm 2 mps 760 mmHg 57%
    19:00 +6°C° 0 mm 2 mps 760 mmHg 57%
    20:00 +6°C° 0 mm 2 mps 760 mmHg 58%
    21:00 +5°C° 0 mm 2 mps 760 mmHg 58%
    22:00 +5°C° 0 mm 2 mps 760 mmHg 57%
    23:00 +5°C° 0 mm 2 mps 760 mmHg 55%

    Tomorrow, 22 February, Wednesday

    Time Temperature Precipitation Wind Pressure Humidity
    00:00 +5°C° 0 mm 2 mps 760 mmHg 54%
    01:00 +3°C° 0 mm 3 mps 760 mmHg 53%
    02:00 +3°C° 0 mm 3 mps 760 mmHg 52%
    03:00 +3°C° 0 mm 3 mps 760 mmHg 51%
    04:00 +3°C° 0 mm 4 mps 760 mmHg 51%
    05:00 +3°C° 0 mm 4 mps 760 mmHg 51%
    06:00 +3°C° 0 mm 4 mps 760 mmHg 52%
    07:00 +5°C° 0 mm 5 mps 760 mmHg 48%
    08:00 +6°C° 0 mm 5 mps 760 mmHg 45%
    09:00 +8°C° 0 mm 5 mps 760 mmHg 42%
    10:00 +9°C° 0 mm 6 mps 760 mmHg 39%
    11:00 +11°C° 0 mm 6 mps 760 mmHg 37%
    12:00 +13°C° 0 mm 6 mps 760 mmHg 35%
    13:00 +13°C° 0 mm 6 mps 759 mmHg 35%
    14:00 +13°C° 0 mm 6 mps 759 mmHg 36%
    15:00 +13°C° 0 mm 5 mps 759 mmHg 37%
    16:00 +10°C° 0 mm 5 mps 759 mmHg 41%
    17:00 +10°C° 0 mm 4 mps 760 mmHg 45%
    18:00 +8°C° 0 mm 3 mps 760 mmHg 49%
    19:00 +7°C° 0 mm 3 mps 760 mmHg 49%
    20:00 +7°C° 0 mm 3 mps 760 mmHg 49%
    21:00 +5°C° 0 mm 3 mps 761 mmHg 49%
    22:00 +5°C° 0 mm 3 mps 761 mmHg 50%
    23:00 +5°C° 0 mm 3 mps 760 mmHg 51%

    Day after tomorrow, 23 February, Thursday

    Time Temperature Precipitation Wind Pressure Humidity
    00:00 +5°C° 0 mm 3 mps 760 mmHg 52%
    01:00 +5°C° 0 mm 3 mps 760 mmHg 52%
    02:00 +4°C° 0 mm 3 mps 760 mmHg 53%
    03:00 +4°C° 0 mm 3 mps 760 mmHg 54%
    04:00 +4°C° 0 mm 4 mps 760 mmHg 54%
    05:00 +3°C° 0 mm 5 mps 761 mmHg 55%
    06:00 +3°C° 0 mm 5 mps 761 mmHg 56%
    07:00 +5°C° 0 mm 6 mps 762 mmHg 52%
    08:00 +7°C° 0 mm 6 mps 762 mmHg 48%
    09:00 +9°C° 0 mm 7 mps 762 mmHg 45%
    10:00 +10°C° 0 mm 7 mps 762 mmHg 43%
    11:00 +11°C° 0 mm 7 mps 762 mmHg 42%
    12:00 +12°C° 0 mm 7 mps 762 mmHg 41%
    13:00 +13°C° 0 mm 6 mps 762 mmHg 41%
    14:00 +14°C° 0 mm 6 mps 762 mmHg 41%
    15:00 +14°C° 0 mm 6 mps 762 mmHg 40%
    16:00 +12°C° 0 mm 5 mps 762 mmHg 44%
    17:00 +11°C° 0 mm 4 mps 762 mmHg 48%
    18:00 +9°C° 0 mm 3 mps 763 mmHg 51%
    19:00 +8°C° 0 mm 3 mps 763 mmHg 52%
    20:00 +8°C° 0 mm 3 mps 763 mmHg 52%
    21:00 +7°C° 0 mm 4 mps 764 mmHg 53%
    22:00 +6°C° 0 mm 4 mps 764 mmHg 54%
    23:00 +6°C° 0 mm 4 mps 764 mmHg 55%

    24 February, Friday

    Time Temperature Precipitation Wind Pressure Humidity
    00:00 +6°C° 0 mm 4 mps 763 mmHg 56%
    01:00 +6°C° 0 mm 4 mps 763 mmHg 56%
    02:00 +6°C° 0 mm 5 mps 763 mmHg 56%
    03:00 +6°C° 0 mm 5 mps 763 mmHg 56%
    04:00 +6°C° 0 mm 5 mps 763 mmHg 56%
    05:00 +5°C° 0 mm 5 mps 764 mmHg 56%
    06:00 +5°C° 0 mm 5 mps 764 mmHg 57%
    07:00 +7°C° 0 mm 5 mps 764 mmHg 53%
    08:00 +9°C° 0 mm 5 mps 764 mmHg 50%
    09:00 +11°C° 0 mm 4 mps 764 mmHg 47%
    10:00 +13°C° 0 mm 4 mps 764 mmHg 43%
    11:00 +14°C° 0 mm 4 mps 764 mmHg 39%
    12:00 +17°C° 0 mm 4 mps 764 mmHg 35%
    13:00 +17°C° 0 mm 3 mps 764 mmHg 35%
    14:00 +17°C° 0 mm 3 mps 764 mmHg 34%
    15:00 +18°C° 0 mm 2 mps 763 mmHg 33%
    16:00 +15°C° 0 mm 2 mps 764 mmHg 39%
    17:00 +13°C° 0 mm 1 mps 764 mmHg 44%
    18:00 +11°C° 0 mm 1 mps 765 mmHg 50%
    19:00 +11°C° 0 mm 1 mps 765 mmHg 50%
    20:00 +10°C° 0 mm 1 mps 765 mmHg 51%
    21:00 +10°C° 0 mm 1 mps 765 mmHg 51%
    22:00 +9°C° 0 mm 1 mps 765 mmHg 51%
    23:00 +9°C° 0 mm 1 mps 765 mmHg 52%

    25 February, Saturday

    Time Temperature Precipitation Wind Pressure Humidity
    00:00 +8°C° 0 mm 1 mps 765 mmHg 52%
    01:00 +8°C° 0 mm 1 mps 765 mmHg 51%
    02:00 +8°C° 0 mm 1 mps 765 mmHg 51%
    03:00 +8°C° 0 mm 1 mps 764 mmHg 51%
    04:00 +6°C° 0 mm 2 mps 764 mmHg 51%
    05:00 +6°C° 0 mm 2 mps 764 mmHg 51%
    06:00 +6°C° 0 mm 2 mps 764 mmHg 52%
    07:00 +8°C° 0 mm 2 mps 764 mmHg 47%
    08:00 +10°C° 0 mm 3 mps 763 mmHg 43%
    09:00 +12°C° 0 mm 3 mps 763 mmHg 39%
    10:00 +13°C° 0 mm 3 mps 762 mmHg 36%
    11:00 +16°C° 0 mm 3 mps 762 mmHg 33%
    12:00 +17°C° 0 mm 3 mps 761 mmHg 31%
    13:00 +17°C° 0 mm 3 mps 760 mmHg 30%
    14:00 +18°C° 0 mm 3 mps 760 mmHg 29%
    15:00 +18°C° 0 mm 3 mps 759 mmHg 29%
    16:00 +16°C° 0 mm 3 mps 759 mmHg 33%
    17:00 +14°C° 0 mm 2 mps 759 mmHg 37%
    18:00 +12°C° 0 mm 2 mps 759 mmHg 41%
    19:00 +12°C° 0 mm 2 mps 759 mmHg 41%
    20:00 +10°C° 0 mm 2 mps 759 mmHg 41%
    21:00 +10°C° 0 mm 2 mps 759 mmHg 41%
    22:00 +10°C° 0 mm 3 mps 759 mmHg 41%
    23:00 +9°C° 0 mm 3 mps 758 mmHg 42%

    26 February, Sunday

    Time Temperature Precipitation Wind Pressure Humidity
    00:00 +9°C° 0 mm 3 mps 757 mmHg 43%
    01:00 +9°C° 0 mm 3 mps 757 mmHg 43%
    02:00 +7°C° 0 mm 4 mps 757 mmHg 44%
    03:00 +7°C° 0 mm 4 mps 756 mmHg 45%
    04:00 +7°C° 0 mm 4 mps 756 mmHg 45%
    05:00 +7°C° 0 mm 4 mps 756 mmHg 46%
    06:00 +7°C° 0 mm 5 mps 756 mmHg 46%
    07:00 +9°C° 0 mm 6 mps 756 mmHg 43%
    08:00 +11°C° 0 mm 7 mps 756 mmHg 41%
    09:00 +12°C° 0 mm 8 mps 756 mmHg 38%
    10:00 +15°C° 0 mm 9 mps 756 mmHg 36%
    11:00 +16°C° 0 mm 10 mps 756 mmHg 35%
    12:00 +17°C° 0 mm 11 mps 756 mmHg 33%
    13:00 +17°C° 0 mm 10 mps 756 mmHg 33%
    14:00 +17°C° 0 mm 10 mps 757 mmHg 34%
    15:00 +17°C° 0 mm 9 mps 757 mmHg 34%
    16:00 +15°C° 0.1 mm 8 mps 759 mmHg 38%
    17:00 +12°C° 0.1 mm 7 mps 760 mmHg 41%
    18:00 +11°C° 0.1 mm 6 mps 761 mmHg 45%
    19:00 +10°C° 0.5 mm 5 mps 761 mmHg 49%
    20:00 +10°C° 0.5 mm 4 mps 762 mmHg 54%
    21:00 +10°C° 0.5 mm 3 mps 763 mmHg 58%
    22:00 +9°C° 0.4 mm 2 mps 763 mmHg 63%
    23:00 +9°C° 0.4 mm 2 mps 764 mmHg 67%
    Show more